Cloud_Cover
100 100 100 64 26 2 54 97 100 100 100 100 20 5 5 8 99 98 44 5 4 0 3 0 0 0 0 0 0 0 0 0
100 100 100 88 39 60 100 100 100 100 99 12 5 5 5 5 75 74 26 12 5 5 5 5 0 5 0 0 0 0 0 0
100 100 93 100 100 100 100 100 100 100 9 5 5 5 5 5 7 30 5 5 5 5 5 45 76 94 5 0 0 0 0 6
100 100 60 100 100 100 100 100 100 17 27 5 5 14 5 13 5 5 5 5 5 5 24 100 100 100 86 6 3 41 19 5
100 94 80 100 100 100 100 100 46 29 12 25 5 15 5 10 68 65 16 5 5 5 5 46 87 99 100 100 44 95 100 100
100 100 100 100 100 100 100 93 6 5 26 94 58 12 9 5 5 5 33 100 91 69 5 5 75 68 34 71 100 100 100 100
96 100 100 100 100 100 100 48 6 10 98 100 95 46 96 71 77 5 5 20 99 100 86 50 15 98 100 100 100 100 100 100
100 100 100 100 100 100 100 46 99 100 100 100 100 100 90 100 98 99 63 5 44 100 100 100 95 38 98 100 98 100 100 100
100 81 100 100 100 100 100 100 98 52 71 99 68 82 100 100 100 100 100 99 42 98 100 100 100 100 100 100 98 100 100 100
100 98 58 99 100 100 100 100 99 86 54 33 66 45 98 100 100 100 46 99 100 98 100 100 100 100 100 100 100 100 100 100
96 100 100 48 100 100 100 100 100 100 100 100 99 55 100 100 100 100 88 39 84 100 100 100 100 100 100 100 100 100 100 100
100 100 100 60 100 100 100 100 100 100 100 100 100 100 100 100 100 99 87 63 88 100 100 100 100 100 100 100 100 100 100 100
100 100 100 64 97 97 100 100 100 100 100 98 100 54 79 100 100 100 100 80 96 100 77 80 100 100 100 100 100 100 100 100
100 100 100 52 71 70 100 100 100 100 100 100 85 94 100 100 100 100 100 100 100 98 96 100 100 100 100 100 100 100 92 87
100 100 100 40 39 96 100 100 100 100 100 100 72 79 100 100 100 100 100 100 100 100 100 100 100 100 100 100 100 100 100 100
100 100 100 82 61 56 48 86 24 100 100 100 99 100 100 100 100 100 100 100 100 100 100 100 100 100 100 100 100 33 97 83
97 100 100 100 100 95 97 100 95 90 100 100 100 100 100 100 100 100 100 100 100 100 81 100 100 100 100 100 100 95 51 43
100 100 100 100 100 100 100 100 100 100 100 100 100 100 100 97 100 100 100 100 100 100 100 100 100 100 100 100 100 67 100 100
86 100 100 100 100 100 100 100 100 100 100 100 100 100 100 100 100 100 100 100 100 100 100 100 100 100 100 100 100 94 30 73
46 100 100 100 100 100 100 100 100 100 100 100 100 100 100 100 100 100 100 100 100 100 100 100 100 100 96 100 100 100 100 100